Simultaneous Nadir Overpasses (SNOs) Predictions

Prediction of SNOs between GOES-16 and AQUA Satellite Orbit:

Table of predicted SNOs for the next 14.0 days since TLE Epoch: 7/31/2021
Index Date Time (GOES-16) GOES-16 Lat,Lon AQUA Lat,Lon Distance(km) Time Diff (sec)
1 08/01/2021 18:23:07 0.10, -75.23 0.83, -71.70 400.15 80
2 08/02/2021 06:44:23 -0.11, -75.23 0.23, -76.87 186.52 80
3 08/04/2021 06:29:32 -0.12, -75.24 -0.42, -73.91 151.35 80
4 08/04/2021 18:50:56 0.12, -75.25 -0.71, -79.10 438.40 80
5 08/06/2021 06:17:20 -0.12, -75.26 -1.01, -70.95 489.52 80
6 08/06/2021 18:38:45 0.13, -75.27 -0.06, -76.15 100.04 80
7 08/08/2021 18:29:14 0.13, -75.30 0.59, -73.20 238.86 80
8 08/09/2021 06:50:28 -0.14, -75.30 0.52, -78.35 346.90 80
9 08/11/2021 06:38:18 -0.14, -75.33 -0.14, -75.40 7.31 80
10 08/13/2021 06:23:26 -0.14, -75.37 -0.74, -72.44 333.14 80
11 08/13/2021 18:44:50 0.15, -75.38 -0.32, -77.64 256.36 80
